Retour au catalogue

COSMOS 839 DEB

ActifLEO
NORAD 10615·DEBRIS·🇷🇺 Russia

Lancé Jul 8, 1976 depuis Plesetsk Cosmodrome

Loading…

Prochains Passages (prochaines 24 heures)

TLE

FraisSource: Space-Track

Époque: Sep 14, 2026, 07:55 UTC

1 10615U 76067AP  26257.33040037  .00000493  00000-0  13514-2 0  9993
2 10615  65.9979 224.5548 0663301 310.7073 206.8782 12.60696067569703

Suivez COSMOS 839 DEB en temps réel avec AllMySat

Download on the App Store